Wind_Speed
36 36 36 35 36 36 35 35 34 34 34 33 32 33 34 35 35 35 36 38 36 36 35 35 33 29 31 30 31 32 29 30 35 35 32 34 37 42 42 30 28 26 22 22 24
37 37 36 36 36 36 36 36 36 36 36 35 35 35 35 35 35 37 37 37 36 34 34 33 32 30 32 30 30 29 30 30 33 36 37 36 36 38 42 38 31 27 24 21 19
37 37 36 36 35 35 35 35 35 35 36 36 36 36 37 38 37 38 37 37 35 34 34 35 35 34 33 32 27 26 28 28 30 32 32 31 33 36 35 30 28 22 19 18 16
37 37 36 36 36 35 34 33 32 32 32 32 33 35 36 35 34 35 35 35 34 32 31 33 30 30 31 31 26 26 27 28 29 31 30 27 22 25 26 21 19 17 16 15 17
40 38 37 37 36 35 35 34 33 34 34 32 33 34 33 31 31 33 34 33 30 29 27 28 30 30 29 26 25 27 27 28 28 26 20 16 16 15 18 20 18 19 10 12 15
41 40 40 39 39 38 38 37 37 37 38 37 37 36 35 33 33 34 32 30 29 28 30 30 25 28 25 24 22 25 24 27 21 17 15 15 16 16 16 18 15 13 9 12 14
46 44 43 42 42 41 41 41 40 41 41 41 40 39 38 37 38 37 36 34 33 33 33 30 27 23 24 22 18 21 21 16 13 14 15 14 14 16 16 16 14 12 10 12 13
46 48 47 45 45 44 43 42 39 38 38 38 36 37 38 36 38 38 39 38 38 37 36 32 26 24 20 20 19 17 15 12 14 15 15 14 14 14 11 10 13 16 14 14 10
45 46 46 46 44 42 40 39 37 37 36 34 32 33 31 30 30 32 35 36 37 37 36 31 28 26 21 18 16 17 13 14 16 16 17 17 18 17 16 19 19 20 18 14 6
45 45 45 43 42 40 37 36 35 36 35 29 28 28 25 26 29 27 29 30 32 35 35 34 31 26 22 18 18 15 13 15 18 19 19 19 20 20 20 20 22 20 19 14 9
46 46 44 44 42 39 36 34 32 30 24 22 24 23 20 20 20 22 28 27 31 31 33 33 29 27 26 22 19 17 17 19 20 19 20 21 23 21 20 20 21 21 17 16 12
48 47 45 44 43 40 36 33 32 29 29 28 25 22 21 20 20 20 24 30 29 26 28 30 30 29 27 24 20 18 18 20 21 21 22 20 22 23 22 22 21 20 18 17 15
50 49 48 46 45 42 39 39 37 35 32 29 28 26 24 24 24 25 24 28 25 25 27 29 30 25 29 30 25 21 22 25 22 23 23 24 24 25 23 21 21 20 19 18 16
52 51 49 48 47 45 45 44 44 39 36 33 31 29 26 26 27 26 27 25 23 26 28 30 26 28 28 28 28 24 24 26 26 28 25 26 23 22 24 24 23 23 20 19 17
53 52 51 50 49 48 48 50 48 45 41 38 36 33 29 26 26 27 28 24 23 25 29 29 27 24 26 30 28 29 31 29 31 31 27 27 25 23 29 26 25 25 21 21 18
54 54 52 51 51 49 49 50 51 48 47 44 40 36 31 26 24 23 25 23 22 26 25 27 28 26 28 30 33 34 33 34 33 33 30 25 27 26 27 28 25 25 24 20 19
58 55 54 53 51 50 51 52 52 52 51 47 42 38 33 29 26 24 21 20 21 22 24 26 28 32 33 34 34 36 38 36 35 33 29 26 26 28 27 26 22 21 21 24 22
61 58 56 55 53 52 52 54 56 55 48 45 41 39 36 32 29 27 23 19 19 20 22 27 28 27 25 29 31 33 37 37 37 33 30 27 27 27 22 24 22 23 24 27 23
64 62 58 57 56 56 54 57 58 54 49 47 43 42 41 39 35 29 26 22 20 18 21 22 26 29 29 29 31 37 41 39 38 35 34 34 33 32 28 28 28 30 31 31 24
67 64 63 60 58 57 56 61 58 56 51 51 49 47 45 44 41 37 31 29 26 22 22 22 23 25 28 28 28 33 40 40 41 41 40 39 38 32 33 34 35 35 37 37 33
69 68 65 63 61 61 61 65 59 58 55 55 52 52 52 51 48 42 37 33 29 27 25 25 24 24 25 29 32 32 34 33 36 40 43 42 39 40 41 43 42 43 45 43 36
66 66 67 64 64 63 66 70 60 55 55 56 55 55 53 49 44 43 40 38 35 33 30 30 27 27 28 29 31 33 35 35 33 32 35 35 35 33 39 40 47 48 45 38 38
54 57 62 66 67 66 69 68 57 57 60 57 52 53 52 50 46 45 41 41 39 38 37 33 32 31 30 30 27 26 30 32 31 33 31 34 32 33 35 36 35 38 35 31 43
41 45 54 60 66 69 72 68 63 61 60 60 56 53 51 51 48 44 42 39 37 36 36 34 33 30 30 29 28 27 28 30 28 29 28 30 32 32 33 33 40 41 35 33 33
32 40 47 50 57 61 67 65 65 59 59 59 54 54 53 50 48 43 41 39 35 35 35 31 31 30 31 31 29 30 27 25 21 25 28 29 30 32 32 34 35 37 35 31 32
28 31 34 40 46 53 62 62 56 51 54 57 56 54 51 49 49 45 44 44 37 33 34 34 31 30 33 32 31 28 27 23 21 23 29 35 25 29 31 33 38 34 36 35 36
23 25 28 33 37 43 48 47 46 48 56 56 58 52 51 46 47 46 44 41 37 38 39 34 30 32 32 32 32 31 31 24 22 28 26 26 29 31 27 29 31 27 31 32 39
Wind_Direction
224 224 224 226 227 228 231 233 235 238 237 239 242 243 244 248 250 253 254 255 259 263 264 262 262 260 269 272 274 271 264 247 240 241 248 260 263 267 271 278 300 294 298 316 332
225 225 225 225 226 229 230 232 234 236 238 238 240 243 248 252 254 256 257 259 261 264 266 269 268 263 267 271 270 271 266 256 252 249 254 261 257 257 266 271 279 289 296 319 326
225 226 227 226 225 226 229 231 233 235 237 239 243 246 248 250 252 255 258 262 266 269 271 271 272 271 269 263 265 273 270 261 260 260 258 261 253 252 257 260 271 288 312 317 328
224 225 225 226 226 227 227 230 233 236 237 238 240 242 245 248 251 256 258 260 261 263 267 267 268 269 263 264 267 272 274 268 264 264 261 258 255 263 266 268 279 289 308 321 335
223 223 224 224 225 227 228 230 234 237 239 239 241 242 244 247 249 250 252 255 258 257 254 257 261 263 262 267 273 277 277 273 269 259 243 242 248 254 264 266 269 275 305 324 335
228 225 225 227 228 229 230 235 239 242 243 243 244 245 247 247 250 253 254 254 257 258 257 252 253 265 271 273 281 285 285 277 262 240 224 223 229 242 254 261 267 278 310 324 336
231 230 229 229 231 233 237 240 244 246 246 245 246 247 249 250 251 253 254 254 255 255 257 263 268 267 272 275 283 287 283 264 228 216 220 228 236 241 255 259 262 282 289 316 339
232 233 233 233 235 238 242 243 242 243 243 243 244 246 248 252 254 254 254 255 253 251 255 261 266 266 266 274 278 281 272 224 206 216 228 228 237 241 246 251 272 281 289 308 337
230 232 233 235 236 236 237 238 237 240 241 240 240 242 246 248 251 251 253 252 252 251 250 252 253 253 254 262 270 272 256 212 210 221 224 236 242 242 237 242 250 270 280 287 299
228 229 231 232 231 232 233 234 234 236 240 241 242 243 244 247 249 249 253 251 248 246 244 244 244 249 245 246 247 248 241 225 216 225 230 247 254 250 249 252 256 262 273 284 268
229 228 229 229 230 228 230 230 230 232 233 227 228 231 236 243 252 252 246 245 243 244 241 241 242 242 242 242 252 248 216 226 238 231 238 250 259 253 253 255 261 263 262 277 279
228 228 228 228 226 227 226 226 225 223 226 229 234 240 241 246 254 257 253 243 248 247 242 240 236 238 245 245 235 238 229 230 231 242 244 247 253 258 255 255 258 261 264 268 278
227 229 228 228 226 226 225 225 227 228 230 233 237 243 249 253 252 256 258 251 248 242 234 234 237 236 241 243 234 228 228 233 237 241 245 243 248 254 259 263 265 263 269 278 281
228 228 229 228 228 226 227 228 230 231 234 235 240 244 246 250 250 252 253 255 247 242 235 238 240 239 245 245 238 229 232 239 231 234 240 250 248 257 260 260 261 262 265 272 278
229 228 229 229 228 228 228 230 232 232 234 235 238 242 246 247 245 245 247 250 247 240 239 239 236 240 248 247 238 226 226 228 239 240 236 245 251 248 257 253 257 261 262 268 280
229 229 229 229 230 229 230 232 234 235 236 237 239 239 240 236 236 242 245 244 243 239 240 235 234 234 234 234 232 228 229 231 233 238 243 239 248 245 248 256 254 261 268 273 276
229 229 228 228 230 229 229 231 233 233 235 237 240 238 234 231 233 237 242 243 244 243 240 240 238 238 234 235 238 234 230 232 234 235 240 243 242 247 244 250 251 255 262 261 270
229 230 230 229 229 230 228 231 233 233 233 234 234 231 227 228 232 235 240 243 245 243 240 240 240 240 241 249 249 244 240 240 241 239 243 243 244 247 250 250 250 250 251 259 264
229 230 231 231 230 230 231 231 233 234 231 232 231 227 225 227 229 233 237 241 245 250 250 247 245 246 247 242 238 237 240 239 242 248 248 247 245 246 245 251 251 252 255 256 255
229 229 230 231 230 232 232 234 232 233 231 229 228 227 224 229 233 233 237 243 247 254 259 255 251 251 250 248 251 244 241 243 243 244 247 250 251 252 253 253 254 257 259 261 260
229 230 231 230 230 231 232 234 231 231 230 229 229 228 227 228 228 231 235 242 247 254 260 264 258 253 248 244 243 244 249 246 245 246 248 250 253 250 249 247 248 248 250 252 246
230 231 230 229 228 229 233 235 232 231 233 232 232 233 236 238 239 237 237 243 249 254 258 260 259 253 252 250 250 252 253 255 252 251 255 257 256 259 260 256 253 254 251 241 228
230 230 230 230 228 229 233 236 234 233 234 235 235 236 238 240 241 245 246 250 252 256 255 252 253 253 253 258 258 257 259 257 258 259 257 260 263 261 257 261 260 257 256 242 230
226 226 226 226 226 227 231 232 230 231 232 234 233 234 235 237 238 239 244 246 249 253 253 251 254 260 263 262 261 258 255 260 262 263 261 263 261 258 261 264 263 260 248 247 237
224 223 227 227 227 228 230 232 231 230 233 236 234 233 233 235 238 238 241 241 240 245 249 249 251 252 252 252 256 261 261 264 270 272 269 264 266 264 265 265 264 270 272 255 248
226 224 226 225 224 226 230 233 235 230 232 235 233 234 234 235 236 235 235 237 236 240 248 246 242 246 251 256 253 251 254 255 258 264 265 270 270 265 274 270 280 283 270 265 249
227 221 216 220 224 225 228 228 228 224 231 229 234 234 234 236 237 236 236 238 237 239 243 245 244 238 246 250 254 249 249 255 266 270 259 268 273 277 280 280 281 278 264 257 244
Height
10936 10940 10943 10947 10951 10953 10956 10958 10961 10963 10966 10968 10970 10972 10972 10972 10975 10974 10976 10977 10979 10981 10985 10990 10993 10993 10990 10994 10994 10993 10995 10995 10994 10992 10995 10994 10996 10995 10992 10989 10987 10989 10991 10987 10985
10931 10934 10938 10942 10945 10948 10951 10953 10956 10958 10961 10964 10966 10966 10966 10968 10970 10970 10972 10972 10974 10977 10980 10983 10984 10988 10987 10987 10989 10986 10986 10988 10987 10989 10990 10991 10990 10991 10990 10988 10988 10988 10987 10985 10985
10926 10929 10932 10936 10940 10942 10945 10948 10951 10953 10955 10958 10960 10961 10961 10963 10965 10964 10966 10967 10971 10973 10976 10976 10977 10978 10978 10981 10983 10979 10977 10981 10980 10982 10984 10984 10984 10985 10987 10986 10985 10984 10983 10983 10981
10919 10923 10926 10930 10934 10937 10940 10942 10945 10947 10950 10952 10954 10955 10956 10959 10961 10961 10962 10962 10966 10969 10971 10969 10970 10971 10970 10973 10977 10974 10974 10975 10975 10976 10976 10977 10979 10981 10983 10983 10982 10982 10982 10981 10978
10913 10917 10921 10924 10928 10931 10935 10937 10940 10942 10944 10946 10948 10950 10952 10955 10955 10955 10956 10959 10962 10963 10962 10962 10965 10964 10964 10968 10969 10968 10968 10967 10968 10969 10971 10973 10976 10978 10978 10980 10981 10981 10981 10980 10978
10906 10910 10914 10918 10922 10926 10929 10931 10934 10936 10937 10940 10942 10944 10947 10949 10950 10950 10952 10955 10956 10956 10955 10955 10958 10958 10961 10963 10965 10963 10963 10961 10961 10963 10968 10972 10975 10977 10976 10977 10978 10978 10979 10978 10978
10898 10903 10907 10911 10915 10919 10922 10924 10927 10929 10930 10933 10935 10938 10940 10941 10941 10943 10946 10948 10949 10949 10949 10953 10956 10956 10958 10959 10961 10959 10959 10957 10957 10961 10965 10969 10972 10974 10972 10973 10975 10975 10976 10976 10975
10890 10895 10900 10904 10908 10911 10914 10917 10920 10922 10923 10926 10929 10930 10930 10935 10936 10938 10938 10941 10941 10942 10945 10949 10952 10953 10955 10956 10955 10955 10954 10955 10957 10959 10963 10966 10970 10971 10972 10972 10972 10972 10973 10973 10972
10882 10887 10891 10896 10900 10903 10907 10910 10913 10915 10916 10920 10922 10923 10926 10928 10929 10930 10931 10933 10934 10937 10939 10944 10946 10949 10950 10952 10953 10951 10953 10953 10956 10959 10962 10964 10966 10968 10970 10970 10971 10970 10970 10970 10970
10874 10878 10884 10888 10892 10896 10900 10903 10905 10907 10911 10917 10919 10920 10923 10923 10923 10925 10925 10927 10927 10929 10933 10937 10940 10945 10945 10947 10949 10950 10950 10953 10954 10958 10961 10962 10962 10965 10966 10966 10967 10969 10967 10968 10969
10865 10869 10875 10881 10886 10890 10893 10896 10900 10904 10910 10912 10912 10914 10917 10918 10919 10920 10919 10920 10920 10923 10928 10932 10937 10940 10941 10943 10946 10948 10948 10951 10953 10957 10959 10960 10958 10960 10962 10963 10963 10965 10967 10966 10967
10855 10861 10866 10872 10878 10883 10888 10892 10894 10898 10901 10904 10908 10910 10911 10913 10914 10915 10914 10914 10917 10922 10923 10926 10929 10934 10938 10939 10941 10945 10946 10949 10949 10952 10955 10957 10955 10955 10958 10959 10961 10962 10963 10964 10965
10846 10851 10857 10864 10871 10877 10882 10883 10886 10890 10894 10899 10902 10904 10907 10908 10908 10909 10909 10909 10914 10918 10919 10920 10923 10930 10932 10933 10936 10939 10941 10943 10948 10948 10949 10953 10953 10953 10954 10956 10957 10959 10959 10960 10961
10836 10842 10849 10855 10862 10869 10872 10874 10876 10883 10888 10892 10895 10897 10900 10902 10903 10904 10904 10906 10909 10912 10914 10915 10922 10924 10926 10929 10932 10935 10938 10939 10942 10944 10947 10947 10952 10951 10950 10951 10953 10953 10955 10957 10957
10826 10833 10839 10846 10852 10858 10863 10864 10869 10875 10879 10884 10886 10890 10893 10897 10898 10898 10899 10902 10905 10907 10908 10912 10916 10922 10923 10925 10929 10931 10931 10934 10936 10940 10944 10946 10948 10949 10944 10948 10950 10950 10952 10952 10955
10815 10822 10829 10836 10842 10850 10854 10857 10861 10867 10870 10874 10880 10883 10888 10891 10893 10893 10895 10898 10900 10901 10904 10907 10911 10913 10915 10918 10921 10924 10927 10929 10931 10933 10938 10944 10942 10944 10943 10945 10950 10950 10949 10951 10952
10804 10811 10819 10826 10833 10839 10844 10847 10850 10854 10859 10867 10873 10879 10882 10885 10888 10889 10891 10894 10896 10897 10900 10902 10905 10906 10908 10909 10911 10916 10919 10922 10926 10930 10934 10937 10938 10938 10942 10944 10947 10947 10948 10945 10945
10793 10800 10808 10815 10823 10828 10833 10836 10837 10842 10855 10861 10866 10871 10876 10880 10882 10884 10887 10890 10891 10893 10895 10896 10899 10901 10905 10906 10910 10914 10916 10919 10920 10925 10929 10932 10932 10935 10941 10939 10942 10941 10941 10939 10942
10780 10789 10798 10803 10811 10816 10822 10823 10827 10838 10847 10852 10857 10863 10868 10871 10875 10879 10882 10885 10887 10890 10891 10893 10894 10895 10897 10900 10902 10906 10906 10911 10915 10920 10922 10924 10927 10931 10935 10935 10935 10933 10931 10933 10938
10767 10777 10783 10791 10799 10804 10809 10808 10819 10827 10837 10842 10847 10852 10858 10863 10868 10872 10875 10878 10881 10885 10887 10889 10890 10891 10892 10894 10896 10897 10898 10903 10907 10910 10913 10915 10918 10926 10927 10928 10927 10927 10924 10925 10929
10753 10762 10771 10779 10786 10792 10794 10793 10808 10815 10824 10830 10838 10841 10845 10849 10856 10864 10870 10872 10875 10878 10881 10883 10885 10885 10886 10887 10887 10889 10891 10895 10897 10901 10902 10904 10908 10911 10914 10912 10915 10913 10911 10914 10918
10738 10748 10757 10765 10774 10778 10779 10775 10798 10811 10817 10821 10826 10833 10839 10848 10856 10861 10864 10868 10871 10872 10875 10877 10878 10879 10879 10880 10881 10884 10886 10887 10891 10894 10895 10897 10899 10902 10900 10901 10899 10898 10899 10906 10907
10725 10735 10743 10750 10758 10764 10764 10772 10794 10801 10801 10809 10821 10827 10834 10842 10850 10853 10860 10861 10863 10866 10868 10870 10872 10873 10873 10873 10876 10879 10878 10880 10885 10887 10887 10886 10891 10890 10887 10886 10891 10893 10896 10901 10900
10715 10722 10725 10731 10739 10746 10747 10760 10776 10784 10792 10796 10808 10817 10826 10832 10838 10845 10849 10855 10856 10858 10860 10863 10864 10867 10869 10867 10868 10871 10870 10873 10878 10878 10879 10878 10877 10879 10877 10879 10878 10880 10887 10890 10891
10708 10710 10713 10722 10729 10736 10739 10750 10758 10774 10782 10790 10801 10806 10815 10823 10828 10836 10841 10844 10848 10850 10853 10857 10857 10859 10860 10859 10861 10863 10867 10870 10874 10872 10871 10872 10871 10870 10870 10870 10870 10870 10870 10879 10880
10699 10704 10710 10715 10719 10724 10727 10739 10753 10767 10776 10783 10791 10799 10808 10814 10819 10826 10829 10832 10838 10842 10845 10848 10852 10852 10852 10853 10853 10858 10860 10865 10867 10865 10865 10863 10864 10863 10861 10859 10858 10857 10858 10859 10862
10695 10698 10703 10706 10711 10715 10721 10733 10746 10763 10762 10772 10780 10795 10802 10809 10812 10818 10822 10826 10830 10833 10835 10840 10844 10845 10845 10845 10848 10854 10852 10858 10860 10856 10856 10857 10857 10855 10854 10852 10848 10847 10847 10849 10853